Snowfall_Accumulation
0.0 0.0 0.0 0.0 0.0 0.0 0.0 0.0 0.0 0.0 0.0 0.0 0.0 0.0 0.0 0.0 0.0 0.0 0.0 0.0 0.0 0.0 0.0 0.0 0.0 0.0 0.0 0.1 0.1 0.1 0.1 0.4 3.7 0.0 0.0 0.0 0.0 0.0 0.0 0.0 0.0 0.0 0.0
0.0 0.0 0.0 0.0 0.0 0.0 0.0 0.0 0.0 0.0 0.0 0.0 0.0 0.0 0.0 0.0 0.0 0.0 0.0 0.0 0.0 0.0 0.0 0.0 0.0 0.0 0.0 0.1 0.1 0.1 0.1 0.1 1.7 1.8 0.4 0.5 0.3 0.0 0.0 0.0 0.0 0.0 0.0
0.0 0.0 0.0 0.0 0.0 0.0 0.0 0.0 0.0 0.0 0.0 0.0 0.0 0.0 0.0 0.0 0.0 0.0 0.0 0.0 0.0 0.0 0.0 0.0 0.0 0.0 0.1 0.1 0.1 0.4 0.3 0.2 1.1 2.0 1.0 0.1 0.3 0.0 1.3 0.1 0.0 0.0 0.0
0.0 0.0 0.0 0.0 0.0 0.0 0.0 0.0 0.0 0.0 0.0 0.0 0.0 0.0 0.0 0.0 0.0 0.0 0.0 0.0 0.0 0.0 0.0 0.0 0.0 0.1 0.1 0.6 1.1 2.4 1.9 1.8 1.2 1.0 0.7 0.5 0.9 0.6 0.4 0.7 0.4 0.2 0.5
0.0 0.0 0.0 0.0 0.0 0.0 0.0 0.0 0.0 0.0 0.0 0.0 0.0 0.0 0.0 0.0 0.0 0.0 0.2 0.4 0.4 0.4 0.2 0.3 0.1 0.7 0.5 0.7 1.5 1.6 1.7 1.7 2.0 3.8 2.5 1.3 0.5 0.3 0.3 0.2 0.9 0.6 1.4
0.0 0.0 0.0 0.0 0.0 0.0 0.0 0.0 0.0 0.0 0.0 0.0 0.0 0.0 0.0 0.0 0.0 0.1 0.4 1.1 0.7 0.5 0.5 0.5 1.2 1.7 1.2 0.6 0.2 0.2 0.4 2.8 4.5 3.8 3.3 1.3 0.2 0.1 0.2 0.4 2.3 4.9 8.1
0.0 0.0 0.0 0.0 0.0 0.0 0.0 0.0 0.0 0.0 0.0 0.0 0.0 0.0 0.0 0.0 0.0 0.2 0.6 1.5 1.2 2.9 3.4 3.7 2.3 1.5 2.0 1.3 0.5 0.2 0.6 0.1 0.1 1.1 1.4 0.3 0.3 0.2 1.5 2.5 2.7 5.1 6.8
0.0 0.0 0.0 0.0 0.0 0.0 0.0 0.0 0.0 0.0 0.0 0.0 0.0 0.2 0.0 0.0 0.1 0.5 2.1 4.7 4.1 4.1 3.5 2.7 2.0 1.7 0.9 0.5 0.7 0.7 0.3 0.0 0.0 0.1 0.1 0.3 0.7 0.3 1.1 2.0 2.1 2.5 1.3
0.0 0.0 0.0 0.0 0.0 0.0 0.0 0.0 0.0 0.0 1.1 3.5 2.7 3.6 4.2 4.1 0.7 0.9 3.0 4.6 3.0 1.8 0.5 0.0 0.0 0.1 0.0 0.1 0.8 0.9 0.3 0.1 0.0 0.0 0.1 0.0 0.0 0.0 0.0 0.9 4.0 6.8 6.7
1.0 1.0 0.5 0.0 1.0 2.7 2.4 4.9 2.5 1.7 4.9 3.8 4.7 4.2 1.9 2.4 0.6 0.9 1.3 2.3 2.6 2.2 0.9 0.0 0.0 0.1 0.1 0.2 0.7 0.7 0.9 0.0 0.6 0.2 0.0 0.0 0.0 0.0 0.0 0.0 2.0 12.9 11.9
0.2 0.4 0.6 0.7 1.2 2.2 3.9 3.6 2.3 2.6 3.4 3.6 3.7 2.5 1.5 0.4 0.2 0.1 0.3 1.8 1.8 1.5 1.0 0.6 0.0 0.1 0.1 0.1 0.0 0.8 0.7 0.2 0.2 0.2 0.3 0.1 0.0 0.0 0.7 0.5 0.2 4.8 15.1
0.0 0.0 0.6 1.1 0.8 1.2 1.3 2.0 2.2 0.9 3.0 2.7 2.4 2.4 1.2 0.0 0.0 0.0 0.1 0.4 0.7 2.7 1.1 0.2 0.1 0.2 0.0 0.0 0.1 0.1 0.3 0.2 0.7 1.0 1.3 1.0 0.8 0.3 0.1 0.4 0.4 0.2 0.6
0.3 0.4 0.8 0.8 0.4 0.1 0.6 1.4 2.1 2.2 3.7 3.2 2.3 2.1 2.2 0.6 0.5 0.1 0.1 0.2 0.5 1.3 0.2 0.2 0.2 0.1 0.1 0.1 0.0 0.1 0.0 0.5 2.3 2.0 1.3 0.7 0.3 0.6 0.9 1.4 1.1 1.3 1.2
2.2 2.1 1.7 1.9 2.4 1.9 0.9 1.6 3.7 4.3 5.0 3.1 2.4 3.5 2.7 2.5 1.4 0.8 0.8 0.9 0.1 0.2 0.1 0.6 0.3 0.7 0.2 0.1 0.2 0.1 0.0 0.2 1.9 2.8 2.1 1.6 1.7 1.1 1.5 1.0 2.5 2.8 6.3
2.6 3.9 4.6 3.9 5.2 5.3 4.7 5.8 7.6 3.6 6.7 12.3 8.4 7.0 7.5 6.8 3.0 2.4 4.3 3.4 2.5 2.2 3.2 5.1 3.8 3.8 3.1 2.8 2.4 2.0 1.9 1.3 2.0 1.4 2.9 3.9 3.1 3.0 2.4 2.0 3.1 4.5 9.6
7.9 7.7 7.9 8.9 8.4 8.3 7.7 11.3 3.2 3.9 2.3 2.2 2.9 6.0 6.3 3.2 1.9 1.6 1.5 1.5 1.1 2.5 8.9 11.0 9.8 8.3 7.1 6.4 4.3 4.0 3.7 3.0 2.9 3.7 4.5 4.5 7.5 6.0 5.7 6.3 5.4 7.4 11.6
11.0 11.2 11.3 10.2 10.2 10.3 10.7 9.2 11.2 6.0 2.0 2.2 2.0 1.9 2.3 2.9 2.0 1.7 1.7 2.4 2.8 4.8 10.8 10.3 11.2 10.0 9.9 9.1 7.9 6.4 6.3 3.5 4.0 6.8 9.7 9.6 10.9 10.7 9.5 8.3 8.0 9.4 12.0
10.4 8.8 10.8 10.3 10.5 11.1 10.8 9.6 8.1 8.7 9.7 8.3 1.4 1.7 1.6 1.9 2.0 2.4 2.9 2.9 6.2 7.0 8.5 9.2 10.1 10.5 10.3 10.5 10.7 9.7 8.3 7.9 9.1 10.0 11.9 12.7 13.5 16.3 13.4 12.1 9.8 13.8 15.2
8.5 10.0 10.6 10.4 9.2 9.8 10.4 9.7 9.4 9.1 8.6 8.4 7.2 3.1 1.3 1.7 1.7 2.8 3.2 6.9 8.2 7.7 8.6 8.9 8.8 9.8 10.6 9.2 9.0 11.2 11.2 10.9 11.4 12.9 10.0 12.1 12.1 18.0 14.6 10.3 11.2 8.8 12.9
7.6 7.7 8.7 9.4 9.0 9.1 9.0 9.3 9.4 9.0 9.0 8.3 7.9 7.2 7.2 6.5 8.3 6.0 5.8 7.1 8.7 8.9 9.4 8.8 6.9 7.3 8.4 8.7 9.5 9.5 11.4 11.0 10.9 9.1 9.2 10.5 11.3 14.5 16.4 13.0 11.3 15.7 13.0
6.3 6.9 6.3 8.1 8.2 8.6 8.9 9.4 8.4 9.5 9.4 8.4 8.1 6.6 5.3 11.9 11.9 8.7 7.8 8.9 9.8 10.0 10.7 10.0 7.5 7.6 7.8 9.2 10.3 10.1 9.0 8.3 8.4 10.3 10.3 9.9 12.1 15.4 8.9 11.0 13.3 12.9 13.2
5.8 6.8 7.5 8.4 7.7 7.7 8.9 8.0 7.9 8.6 8.3 9.0 8.2 6.7 4.0 8.1 8.5 9.4 9.9 9.8 9.9 9.7 10.3 12.2 9.7 9.1 10.9 13.9 14.0 12.4 9.3 7.5 7.9 11.0 11.2 10.4 11.8 11.1 10.9 12.4 12.9 13.8 12.9
7.4 8.4 8.9 10.0 8.3 7.7 8.0 6.6 6.8 7.9 8.8 8.6 7.8 8.4 9.7 8.7 8.5 9.6 10.6 10.4 9.9 10.2 10.0 11.7 13.0 10.1 8.2 11.0 14.0 17.2 17.7 10.6 10.3 14.8 18.8 13.6 11.7 11.7 13.0 15.9 12.1 14.2 11.5
8.3 9.5 10.4 9.4 8.4 8.8 8.4 8.6 7.9 8.5 9.3 9.6 8.7 9.4 9.2 8.7 9.7 9.8 10.3 10.9 11.0 10.7 10.3 11.8 12.7 12.0 11.1 10.6 10.7 11.9 14.6 14.0 16.8 18.7 20.7 23.7 16.7 11.3 12.7 13.3 11.0 11.1 12.1
8.3 11.1 12.7 12.6 11.5 10.5 9.5 7.5 6.9 7.9 9.6 9.5 10.4 10.4 9.6 9.6 10.6 9.3 9.9 11.6 12.1 11.7 10.2 10.2 10.4 11.6 11.2 11.5 11.0 11.5 11.8 11.0 14.3 16.5 18.0 17.0 15.1 11.0 11.8 11.6 10.6 11.3 11.8
11.4 11.6 14.3 14.4 12.8 10.2 9.6 9.5 8.9 9.0 11.5 12.1 11.8 10.8 10.7 11.0 10.3 10.1 9.9 10.9 11.4 11.6 11.6 11.4 9.6 9.5 9.3 9.2 8.6 8.8 7.8 6.9 9.0 7.7 13.8 17.8 16.9 13.0 11.8 12.4 10.9 13.6 12.2